User: anonymous   Login
Location: Gesvres
(49.0440°N, 2.8518°E)
Time: 18:38:35
(UTC+00:00)
Language:

Cosmos 1140 Rocket - Orbit

View from above orbital plane
View from above orbital plane
View from above satellite
View from above satellite

Ground track
Ground track

The orbit data is extracted from the following two-line orbital elements,

1 11574U 79089B   23153.07916990  .00000315  00000-0  10580-3 0  9992
2 11574  74.0675 161.7991 0016922 235.0023 124.9545 14.41155409290519
Epoch (UTC): 02 June 2023 01:54:00
Eccentricity: 0.0016922
inclination: 74.0675°
perigee height: 742 km
apogee height: 767 km
right ascension of ascending node: 161.7991°
argument of perigee: 235.0023°
revolutions per day: 14.41155409
mean anomaly at epoch: 124.9545°
orbit number at epoch: 29051

The dashed part of the orbit path shows where the satellite is in the earth's shadow,  

DLR